Location: Unspecified
(0.0000°N, 0.0000°E)
Time: 02:27:23
(UTC+00:00)

STARLINK-1761 - Pass Details

Date: 24 February 2021
Orbit: 317 x 318 km, 53.1° (Epoch: 23 February)

Event Time Altitude Azimuth Distance (km) Brightness Sun altitude
Exits shadow 05:20:13 - 348° (NNW) 1,645 5.8 -13.1°
Reaches altitude 10° 05:21:21 10° 358° (N) 1,220 5.3 -12.8°
Maximum altitude 05:23:39 24° 56° (NE) 711 4.8 -12.2°
Drops below altitude 10° 05:25:57 10° 114° (ESE) 1,228 6.8 -11.7°
Sets 05:28:07 0° 128° (SE) 2,064 7.7 -11.1°
